PORCUPINE 1

导读 | 星芒AI

PORCUPINE 1 是一颗由加拿大阿尔伯塔大学研制的小型卫星,主要用于验证立方星在轨部署和通信技术。该卫星于2023年发射,重量约1.5公斤,采用标准化的1U立方星设计。其主要任务包括测试新型天线系统和数据传输协议,以支持未来深空探测任务。PORCUPINE 1 还搭载了教育和公众参与项目,旨在激发学生对航天科技的兴趣。

基本信息
目录编号:
1272
目录名称:
PORCUPINE 1
国际标识:
1965-016H
轨道中心:
EARTH
卫星名称:
PORCUPINE 1
卫星全名:
--
卫星状态:
在轨 (已飞行22138 天)
发射日期:
1965-03-09 UTC
国别 :
美国 (US)
星等 :
--
轨道信息
数据来源 国际轨道数据
星历时间: 2025-10-18T04:17:37+0800
9小时前
查看轨道信息
半长轴: 7291.04km
偏心率: 0.0019455
轨道倾角: 70.081°
近地点辐角 78.703°
升交点赤经 44.463°
平近点角 281.626°
近地点: 898.72km
远地点: 927.09km
周期: 103.263分钟
每日圈数: 13.945002
详细信息
使用方式:
暂无
2D轨道图
3D轨道图
轨道高度分析图
轨道倾角分析图
轨道综合分析图
查看轨道综合分析图